Weather History for Madison, MN

Change the Weather History Date:

Wednesday, May 2, 2012

  Actual Average (KAQP) Record (KAQP)
Temperature  
Mean Temperature 68 °F -  
Max Temperature 82 °F 63 °F 78 °F (2012)
Min Temperature 53 °F 38 °F 23 °F (2002)
Cooling Degree Days 2    
Growing Degree Days 18 (Base 50)    
Moisture  
Dew Point 52 °F    
Average Humidity 58    
Maximum Humidity 94    
Minimum Humidity 24    
Precipitation  
Precipitation 0.00 in - - ()
Sea Level Pressure  
Sea Level Pressure 29.67 in    
Wind  
Wind Speed 6 mph (SW)    
Max Wind Speed 16 mph    
Max Gust Speed 17 mph    
Visibility 10 miles    
Events Thunderstorm    
Averages and records for this station are not official NWS values.
T = Trace of Precipitation, MM = Missing Value Source: NWS Daily Summary

Daily Weather History Graph

Daily Weather History Graph

Search for Another Location

Airport:

Trip Planner

Search our weather history database for the weather conditions in past years. The results will help you decide how hot, cold, wet, or windy it might be!

Date:

Astronomy

May. 02, 2012 Rise Set
Actual Time 6:11 AM CDT 8:32 PM CDT
Civil Twilight 5:39 AM CDT 9:04 PM CDT
Nautical Twilight 4:58 AM CDT 9:45 PM CDT
Astronomical Twilight 4:13 AM CDT 10:31 PM CDT
Moon 4:37 PM CDT 3:52 AM CDT
Length of Visible Light 15h 25m
Length of Day
14h 20m
Waxing Gibbous, 83% of the Moon is Illuminated
May 2
Waxing Gibbous
May 5
Full
May 12
Last Quarter
May 20
New
May 28
First Quarter

Hourly Weather History & Observations

Time (CDT) Temp. Heat Index Dew Point Humidity Pressure Visibility Wind Dir Wind Speed Gust Speed Precip Events Conditions
12:14 AM 62.6 °F - 55.4 °F 77% 29.54 in 10.0 mi SW 8.1 mph - N/A   Clear
12:33 AM 62.6 °F - 55.4 °F 77% 29.54 in 10.0 mi WSW 5.8 mph - N/A   Clear
12:53 AM 62.6 °F - 53.6 °F 72% 29.54 in 10.0 mi West 5.8 mph - N/A   Clear
1:14 AM 62.6 °F - 55.4 °F 77% 29.56 in 10.0 mi WSW 6.9 mph - N/A   Clear
1:33 AM 62.6 °F - 53.6 °F 72% 29.56 in 10.0 mi West 5.8 mph - N/A   Clear
1:54 AM 59.0 °F - 53.6 °F 82% 29.55 in 10.0 mi SSE 6.9 mph - N/A   Clear
2:14 AM 57.2 °F - 53.6 °F 88% 29.56 in 10.0 mi SW 3.5 mph - N/A   Clear
2:33 AM 60.8 °F - 53.6 °F 77% 29.58 in 10.0 mi South 5.8 mph - N/A   Clear
2:54 AM 59.0 °F - 53.6 °F 82% 29.59 in 10.0 mi SW 3.5 mph - N/A   Clear
3:14 AM 57.2 °F - 53.6 °F 88% 29.60 in 10.0 mi South 4.6 mph - N/A   Clear
3:33 AM 59.0 °F - 53.6 °F 82% 29.60 in 10.0 mi SSW 5.8 mph - N/A   Clear
3:54 AM 57.2 °F - 53.6 °F 88% 29.61 in 10.0 mi Calm Calm - N/A   Clear
4:14 AM 55.4 °F - 53.6 °F 94% 29.61 in 10.0 mi West 5.8 mph - N/A   Clear
4:33 AM 57.2 °F - 53.6 °F 88% 29.62 in 10.0 mi WNW 6.9 mph - N/A   Clear
4:54 AM 57.2 °F - 53.6 °F 88% 29.62 in 10.0 mi WNW 8.1 mph - N/A   Clear
5:14 AM 55.4 °F - 51.8 °F 88% 29.63 in 10.0 mi WNW 8.1 mph - N/A   Clear
5:33 AM 57.2 °F - 51.8 °F 82% 29.63 in 10.0 mi WNW 8.1 mph - N/A   Clear
5:54 AM 55.4 °F - 51.8 °F 88% 29.64 in 10.0 mi Calm Calm - N/A   Clear
6:13 AM 53.6 °F - 50.0 °F 88% 29.65 in 10.0 mi WNW 5.8 mph - N/A   Clear
6:34 AM 55.4 °F - 51.8 °F 88% 29.66 in 10.0 mi WNW 6.9 mph - N/A   Clear
6:54 AM 55.4 °F - 50.0 °F 82% 29.67 in 10.0 mi WNW 4.6 mph - N/A   Clear
7:13 AM 55.4 °F - 51.8 °F 88% 29.68 in 10.0 mi West 4.6 mph - N/A   Clear
7:34 AM 59.0 °F - 51.8 °F 77% 29.68 in 10.0 mi WSW 3.5 mph - N/A   Clear
7:54 AM 60.8 °F - 51.8 °F 72% 29.69 in 10.0 mi West 3.5 mph - N/A   Clear
8:13 AM 62.6 °F - 51.8 °F 68% 29.70 in 10.0 mi Calm Calm - N/A   Clear
8:34 AM 64.4 °F - 51.8 °F 64% 29.70 in 10.0 mi NW 4.6 mph - N/A   Clear
8:54 AM 64.4 °F - 51.8 °F 64% 29.71 in 10.0 mi NW 4.6 mph - N/A   Clear
9:13 AM 66.2 °F - 53.6 °F 64% 29.71 in 10.0 mi NW 4.6 mph - N/A   Clear
9:34 AM 69.8 °F - 53.6 °F 56% 29.71 in 10.0 mi North 3.5 mph - N/A   Clear
9:54 AM 71.6 °F - 51.8 °F 50% 29.71 in 10.0 mi North 6.9 mph - N/A   Clear
10:13 AM 71.6 °F - 51.8 °F 50% 29.71 in 10.0 mi NNW 5.8 mph - N/A   Clear
10:34 AM 73.4 °F - 50.0 °F 44% 29.72 in 10.0 mi NNW 4.6 mph - N/A   Clear
10:54 AM 75.2 °F - 48.2 °F 38% 29.72 in 10.0 mi North 6.9 mph - N/A   Clear
11:13 AM 75.2 °F - 48.2 °F 38% 29.73 in 10.0 mi NNW 4.6 mph - N/A   Clear
11:34 AM 75.2 °F - 42.8 °F 31% 29.74 in 10.0 mi North 4.6 mph - N/A   Clear
11:54 AM 77.0 °F - 42.8 °F 29% 29.74 in 10.0 mi North 5.8 mph - N/A   Clear
12:13 PM 78.8 °F - 42.8 °F 28% 29.74 in 10.0 mi North 4.6 mph - N/A   Clear
12:34 PM 78.8 °F - 44.6 °F 30% 29.74 in 10.0 mi North 4.6 mph - N/A   Clear
12:54 PM 78.8 °F - 42.8 °F 28% 29.73 in 10.0 mi Calm Calm - N/A   Clear
1:13 PM 78.8 °F - 42.8 °F 28% 29.73 in 10.0 mi Calm Calm - N/A   Clear
1:34 PM 78.8 °F - 42.8 °F 28% 29.73 in 10.0 mi Calm Calm - N/A   Clear
1:53 PM 80.6 °F - 42.8 °F 26% 29.73 in 10.0 mi NW 3.5 mph - N/A   Clear
2:14 PM 80.6 °F - 42.8 °F 26% 29.73 in 10.0 mi Calm Calm - N/A   Clear
2:34 PM 80.6 °F - 42.8 °F 26% 29.73 in 10.0 mi Calm Calm - N/A   Clear
2:53 PM 82.4 °F - 44.6 °F 26% 29.73 in 10.0 mi West 4.6 mph - N/A   Clear
3:14 PM 80.6 °F - 41.0 °F 24% 29.73 in 10.0 mi Calm Calm - N/A   Clear
3:34 PM 80.6 °F - 46.4 °F 30% 29.74 in 10.0 mi SSE 11.5 mph - N/A   Clear
3:53 PM 78.8 °F - 48.2 °F 34% 29.74 in 10.0 mi South 8.1 mph - N/A   Clear
4:34 PM 80.6 °F - 48.2 °F 32% 29.72 in 10.0 mi SSE 6.9 mph - N/A   Clear
4:53 PM 80.6 °F - 48.2 °F 32% 29.72 in 10.0 mi ESE 8.1 mph - N/A   Clear
5:14 PM 80.6 °F - 50.0 °F 34% 29.71 in 10.0 mi South 5.8 mph - N/A   Clear
5:34 PM 80.6 °F - 51.8 °F 37% 29.70 in 10.0 mi South 8.1 mph - N/A   Clear
5:53 PM 80.6 °F 80.3 °F 53.6 °F 39% 29.70 in 10.0 mi SE 12.7 mph 16.1 mph N/A   Clear
6:14 PM 78.8 °F - 55.4 °F 44% 29.69 in 10.0 mi SE 10.4 mph 17.3 mph N/A   Clear
6:33 PM 78.8 °F - 55.4 °F 44% 29.69 in 10.0 mi SE 10.4 mph - N/A   Clear
6:53 PM 80.6 °F 80.5 °F 55.4 °F 42% 29.69 in 10.0 mi SSE 11.5 mph - N/A   Clear
7:14 PM 80.6 °F 80.5 °F 55.4 °F 42% 29.68 in 10.0 mi SSE 9.2 mph - N/A   Clear
7:33 PM 80.6 °F 80.8 °F 57.2 °F 45% 29.68 in 10.0 mi SSE 9.2 mph - N/A   Clear
7:54 PM 77.0 °F - 57.2 °F 50% 29.67 in 10.0 mi SE 10.4 mph - N/A   Clear
8:13 PM 75.2 °F - 57.2 °F 53% 29.68 in 10.0 mi SE 9.2 mph - N/A   Clear
8:33 PM 73.4 °F - 57.2 °F 57% 29.68 in 10.0 mi SE 8.1 mph - N/A   Clear
8:54 PM 73.4 °F - 59.0 °F 61% 29.68 in 10.0 mi ESE 8.1 mph - N/A   Clear
9:14 PM 71.6 °F - 59.0 °F 64% 29.68 in 10.0 mi East 6.9 mph - N/A Thunderstorm Thunderstorm
9:33 PM 71.6 °F - 59.0 °F 64% 29.67 in 10.0 mi ESE 9.2 mph - N/A   Scattered Clouds
9:54 PM 73.4 °F - 60.8 °F 65% 29.65 in 10.0 mi SE 16.1 mph - N/A Thunderstorm Mostly Cloudy
10:14 PM 71.6 °F - 60.8 °F 69% 29.70 in 10.0 mi North 10.4 mph 16.1 mph N/A Thunderstorm Thunderstorm
10:33 PM 73.4 °F - 60.8 °F 65% 29.70 in 10.0 mi SE 3.5 mph - N/A   Overcast
10:54 PM 73.4 °F - 60.8 °F 65% 29.70 in 10.0 mi Calm Calm - N/A   Scattered Clouds
11:33 PM 71.6 °F - 62.6 °F 73% 29.70 in 10.0 mi SE 8.1 mph - N/A   Clear
11:54 PM 69.8 °F - 60.8 °F 73% 29.71 in 10.0 mi SE 5.8 mph - N/A   Clear